Home   Weather   Pago Pago   Past weeks

Flag for American Samoa Past Weather in Pago Pago, American Samoa — Yesterday and Last 2 Weeks

87 °F

Broken clouds.

Feels Like: 106 °F
Forecast: 81 / 88 °F
Wind: 10 mph from East

Location: Pago Pago / Int. Airp.

Current Time: Oct 23, 2016 at 2:40:04 PM

Latest Report: Oct 23, 2016 at 1:50 PM

Visibility: 12 mi

Pressure: 29.80 "Hg

Humidity: 83%

Dew Point: 82 °F

Location of Pago PagoLocation

Past Weather in Pago Pago — Graph


Pago Pago Temperature Yesterday

Maximum temperature yesterday: 85 °F (at 8:50 AM)
Minimum temperature yesterday: 76 °F (at 10:50 PM)
Average temperature yesterday: 80 °F

High & Low Weather Summary for the Past Weeks

High105 °F (Oct 9, 12:51 PM)100% (Oct 9, 3:56 AM)29.96 "Hg (Oct 9, 3:56 AM)
Low76 °F (Oct 9, 3:56 AM)47% (Oct 9, 12:51 PM)29.75 "Hg (Oct 10, 2:51 AM)
Average83 °F88%29.85 "Hg
* Reported Oct 8 12:50 PM — Oct 23 12:50 PM, Pago Pago, Weather by CustomWeather, © 2016

Note: Actual official high and low records may vary slightly from our data, if they occured in-between our weather recording intervals... More about our weather records


Pago Pago Weather History for the Previous 24 Hours

Scroll right to see more
Time TempWeatherWind HumidityBarometerVisibility
12:50 PM
Sun, Oct 23
87 °FPartly sunny.10 mph82%29.80 "Hg12 mi
11:50 AM83 °FBroken clouds.13 mph93%29.83 "Hg12 mi
11:00 AM81 °FBroken clouds.6 mph96%29.86 "Hg12 mi
10:51 AM81 °FBroken clouds.6 mph96%29.86 "Hg12 mi
9:52 AM77 °FSprinkles. Cloudy.6 mph98%29.86 "Hg7 mi
8:53 AM84 °FBroken clouds.10 mph86%29.85 "Hg11 mi
7:52 AM84 °FBroken clouds.12 mph89%29.84 "Hg11 mi
6:50 AM83 °FBroken clouds.7 mph91%29.83 "Hg11 mi
5:50 AM79 °FSprinkles. Partly cloudy.6 mph98%29.80 "Hg10 mi
4:51 AM80 °FPartly cloudy.6 mph98%29.78 "Hg10 mi
3:55 AM81 °FPassing clouds.7 mph93%29.78 "Hg10 mi
2:52 AM81 °FOvercast.8 mph94%29.78 "Hg10 mi
1:52 AM80 °FPartly cloudy.9 mph96%29.77 "Hg10 mi
12:50 AM79 °FOvercast.7 mph98%29.78 "Hg10 mi
11:50 PM
Sat, Oct 22
79 °FPartly cloudy.5 mph99%29.79 "Hg10 mi
10:50 PM76 °FSprinkles. Mostly cloudy.3 mph100%29.83 "Hg8 mi
9:53 PM78 °FMostly cloudy.3 mph100%29.88 "Hg8 mi
8:50 PM79 °FMostly cloudy.2 mph98%29.86 "Hg10 mi
7:50 PM78 °FMostly cloudy.No wind99%29.86 "Hg8 mi
6:51 PM78 °FLots of rain. Mostly cloudy.9 mph97%29.84 "Hg4 mi
5:51 PM82 °FBroken clouds.5 mph91%29.81 "Hg12 mi
4:50 PM82 °FBroken clouds.3 mph89%29.78 "Hg12 mi
3:50 PM82 °FSprinkles. Partly sunny.7 mph89%29.79 "Hg12 mi
2:54 PM83 °FSprinkles. Partly sunny.8 mph88%29.79 "Hg11 mi
Weather by CustomWeather, © 2016

See weather overviewHow to use our weather pages